Regional Weather Roundup
Issued by NWS

Home | Current Version | Previous Version | Graphics & Text | Print | Product List | Glossary On
Versions: 1 2 3 4 5 6 7 8 9 10 11 12 13 14 15 16 17 18 19 20 21 22 23 24 25 26 27 28 29 30 31 32 33 34 35 36 37 38 39 40 41 42 43 44 45 46 47 48 49 50
052
ASUS45 KPSR 190410
RWRAZ

ARIZONA HOURLY REGIONAL WEATHER ROUNDUP
NATIONAL WEATHER SERVICE PHOENIX AZ
900 PM MST WED JAN 18 2017

NOTE: FAIR INDICATES FEW OR NO CLOUDS BELOW 12,000 FEET WITH NO
SIGNIFICANT WEATHER AND/OR OBSTRUCTIONS TO VISIBILITY.

AZZ001>003-036-190500-
NORTHWEST ARIZONA

CITY           SKY/WX    TMP DP  RH WIND       PRES   REMARKS
BULLHEAD CITY  MOCLDY    52  32  46 SE5       30.02S
KINGMAN        PTCLDY    43  26  51 SW8       30.03S
$$

AZZ004>008-015-016-018-190500-
NORTH CENTRAL ARIZONA

CITY           SKY/WX    TMP DP  RH WIND       PRES   REMARKS
GRAND CANYON   CLEAR     27  22  81 SW5       30.06R WCI  22
WILLIAMS       CLEAR     34  25  69 S8G14     30.08S WCI  27
PRESCOTT       CLEAR     39  33  79 S7        30.09R WCI  34
FLAGSTAFF      PTCLDY    32  29  88 W6        30.07R WCI  26
PAYSON         CLEAR     39  36  87 CALM      30.11S
PAGE           CLEAR     39  28  64 CALM      29.97F
$$

AZZ009>014-017-190500-
NORTHEAST ARIZONA

CITY           SKY/WX    TMP DP  RH WIND       PRES   REMARKS
WINSLOW        CLEAR     39  32  76 SW7       30.02S WCI  34
SAINT JOHNS    CLEAR     37  29  72 W12       30.02F WCI  29
SHOW LOW       CLEAR     32  28  86 S12       30.07F WCI  23
$$

AZZ023-190500-
GREATER PHOENIX AREA

CITY           SKY/WX    TMP DP  RH WIND       PRES   REMARKS
PHOENIX        CLEAR     60  40  47 NW5       30.04R
BUCKEYE        CLEAR     50  45  81 N6        30.06S
LUKE AFB       CLEAR     52  43  70 NW3       30.05R
DEER VALLEY    CLEAR     52  41  66 CALM      30.05R
SCOTTSDALE     CLEAR     55  42  61 N3        30.07R
MESA-GATEWAY   PTCLDY    52  43  71 CALM      30.05S
CHANDLER       CLEAR     54  41  62 SW6       30.05R
$$

AZZ027-028-190500-
SOUTHWEST MARICOPA COUNTY AND PINAL COUNTY

CITY           SKY/WX    TMP DP  RH WIND       PRES   REMARKS
CASA GRANDE    CLEAR     51  41  68 N5        30.06R
$$

AZZ503-504-507>509-190500-
SOUTHEAST ARIZONA

CITY           SKY/WX    TMP DP  RH WIND       PRES   REMARKS
TUCSON         CLEAR     51  41  68 SW3       30.08R
DAVIS-MONTHAN  CLEAR     48  40  74 CALM      30.07R
NOGALES        CLEAR     42  33  70 SE5       30.10R
SIERRA VISTA   CLEAR     42  34  74 SW8       30.09S
DOUGLAS        CLEAR     41  35  79 N9        30.07S
SAFFORD        CLEAR     44  39  82 E5        30.04R
$$

AZZ020-021-025-026-031-190500-
SOUTHWEST ARIZONA

CITY           SKY/WX    TMP DP  RH WIND       PRES   REMARKS
YUMA           PTCLDY    56  31  38 S5        30.06R
$$

CAZ031-033-041-043-047-048-061-190500-
SOUTHERN CALIFORNIA

CITY           SKY/WX    TMP DP  RH WIND       PRES   REMARKS
DOWNTOWN L.A.  LGT RAIN  55  51  86 CALM      30.10F
L.A. AIRPORT   LGT RAIN  54  50  86 E10       30.08F
SAN DIEGO      CLOUDY    59  47  64 N5        30.17F
BURBANK        LGT RAIN  52  47  83 SE9       30.07F
ONTARIO        CLOUDY    52  45  77 W6        30.11F
RIVERSIDE      CLOUDY    53  46  77 CALM      30.12F
PALM SPRINGS   CLOUDY    59  34  39 CALM      30.06S
EL CENTRO NAS  CLOUDY    60  41  49 W14       30.08R
IMPERIAL         N/A    N/A N/A N/A MISG      30.05R
BLYTHE         MOCLDY    57  32  38 SW6       30.04S
NEEDLES        CLOUDY    58  28  32 W10       30.02S
$$

NVZ020-UTZ003-190500-
SOUTHERN NEVADA-UTAH

CITY           SKY/WX    TMP DP  RH WIND       PRES   REMARKS
LAS VEGAS      CLOUDY    54  23  30 E3        29.93F
SALT LAKE CITY CLOUDY    25  21  85 CALM      29.91F FOG
$$

NMZ009-TXZ055-190500-
NEW MEXICO-WEST TEXAS

CITY           SKY/WX    TMP DP  RH WIND       PRES   REMARKS
ALBUQUERQUE    PTCLDY    41  31  67 N8        30.00S
EL PASO        PTCLDY    52  36  54 W8        30.03R
$$


........................KEY........................
SKY/WX - SKY CONDITION/WEATHER
TMP    - TEMPERATURE IN FAHRENHEIT
DP     - DEW POINT IN FAHRENHEIT
RH     - RELATIVE HUMIDITY IN PERCENT
WIND   - DIRECTION AND SPEED IN MILES PER HOUR (MPH)
VRB    - VARIABLE WIND DIRECTION
PRES   - MEAN SEA LEVEL PRESSURE IN INCHES OF MERCURY
         F - FALLING PRESSURE   R - RISING PRESSURE
         S - STEADY PRESSURE
VSB    - VISIBILITY IN MILES
HX     - HEAT INDEX IN FAHRENHEIT
WCI    - WIND CHILL INDEX IN FAHRENHEIT
TC     - TEMPERATURE IN CELSIUS WHICH IS ALSO KNOWN AS
         TEMPERATURE IN CENTIGRADE
AFB    - AIR FORCE BASE
         LUKE AFB IS LUKE AIR FORCE BASE
         DAVIS-MONTHAN IS DAVIS-MONTHAN AIR FORCE BASE
NAS    - NAVAL AIR STATION
         EL CENTRO NAS IS EL CENTRO NAVAL AIR STATION
N/A    - NOT AVAILABLE





USA.gov is the U.S. government's official web portal to all federal, state and local government web resources and services.